FW1237 Weather Reports


time (UTC)temp
F
wind
direction
speed
knots
gust
knots
rain 1hr
in
rain 24hr
in
rain mn
in
humidity
%
barometer
mb
20260906172717 75 0.0 0.0 0.00 0.00 0.00 81 1020.1
20260906171716 75 0.0 0.0 0.00 0.00 0.00 83 1020.3
20260906170716 75 0.0 0.0 0.00 0.00 0.00 78 1020.3
20260906165717 74 0.0 0.0 0.00 0.00 0.00 83 1020.1
20260906164717 73 0.0 0.0 0.00 0.00 0.00 84 1020.2
20260906163715 74 0.0 0.9 0.00 0.00 0.00 82 1020.5
20260906162716 73 0.0 0.0 0.00 0.00 0.00 81 1020.6
20260906161715 72 0.0 0.0 0.00 0.00 0.00 82 1020.4
20260906160716 72 0.0 0.0 0.00 0.00 0.00 83 1020.4
20260906155718 72 0.0 0.0 0.00 0.00 0.00 85 1020.5
20260906154718 71 0.0 0.0 0.00 0.00 0.00 86 1020.6
20260906153718 71 0.0 0.0 0.00 0.00 0.00 88 1020.7
20260906152718 70 0.0 0.0 0.00 0.00 0.00 88 1020.8
20260906151740 70 0.0 0.0 0.00 0.00 0.00 87 1020.7
20260906150719 70 0.0 0.0 0.00 0.00 0.00 87 1020.6
20260906145718 69 0.0 0.0 0.00 0.00 0.00 88 1020.5
20260906144719 69 0.0 0.0 0.00 0.00 0.00 90 1020.4
20260906143718 69 0.0 0.0 0.00 0.00 0.00 92 1020.3
20260906142717 68 0.0 0.0 0.00 0.00 0.00 91 1020.0
20260906141717 68 0.0 0.0 0.00 0.00 0.00 95 1019.8
20260906140718 67 0.0 0.0 0.00 0.00 0.00 95 1019.7
20260906135717 66 0.0 0.0 0.00 0.00 0.00 95 1019.5
20260906134717 66 0.0 0.0 0.00 0.00 0.00 95 1019.8
20260906133718 66 0.0 0.0 0.00 0.00 0.00 96 1020.1
20260906132717 66 0.0 0.0 0.00 0.00 0.00 96 1020.1
20260906131717 66 0.0 0.0 0.00 0.00 0.00 96 1020.2
20260906130717 66 0.0 0.0 0.00 0.00 0.00 96 1020.2
20260906125717 66 0.0 0.0 0.00 0.00 0.00 96 1020.2
20260906124719 66 0.0 0.0 0.00 0.00 0.00 96 1020.1
20260906123719 66 0.0 0.0 0.00 0.00 0.00 96 1020.0
20260906122718 66 0.0 0.0 0.00 0.00 0.00 96 1019.6
20260906121717 66 0.0 0.0 0.00 0.00 0.00 96 1019.7
20260906120717 66 0.0 0.0 0.00 0.00 0.00 96 1019.6
20260906115738 66 0.0 0.0 0.00 0.00 0.00 96 1019.4
20260906114912 66 0.0 0.0 0.00 0.00 0.00 96 1019.1
20260906114617 66 0.0 0.0 0.00 0.00 0.00 96 1019.1
20260906113617 66 0.0 0.0 0.00 0.00 0.00 96 1018.9
20260906112619 66 0.0 0.0 0.00 0.00 0.00 96 1018.9
20260906111619 66 0.0 0.0 0.00 0.00 0.00 96 1018.9
20260906110637 66 0.0 0.0 0.00 0.00 0.00 96 1018.8
20260906105617 66 0.0 0.0 0.00 0.00 0.00 96 1018.9
20260906104638 65 0.0 0.0 0.00 0.00 0.00 96 1018.8
20260906103617 65 0.0 0.0 0.00 0.00 0.00 96 1018.8
20260906102618 65 0.0 0.0 0.00 0.00 0.00 96 1018.7
20260906101639 66 0.0 0.0 0.00 0.00 0.00 96 1018.6
20260906100617 66 0.0 0.0 0.00 0.00 0.00 96 1018.4
20260906095618 66 0.0 0.0 0.00 0.00 0.00 96 1018.2
20260906094617 67 0.0 0.0 0.00 0.00 0.00 96 1018.1
20260906093617 67 0.0 0.0 0.00 0.00 0.00 96 1018.1
20260906092617 67 0.0 0.0 0.00 0.00 0.00 96 1017.9
20260906091617 67 0.0 0.0 0.00 0.00 0.00 96 1017.9
20260906090618 66 0.0 0.0 0.00 0.00 0.00 96 1018.1
20260906085617 67 0.0 0.0 0.00 0.00 0.00 96 1018.2
20260906084617 67 0.0 0.0 0.00 0.00 0.00 96 1018.2
20260906083617 67 0.0 0.0 0.00 0.00 0.00 96 1018.4
20260906082617 67 0.0 0.0 0.00 0.00 0.00 96 1018.2
20260906081617 67 0.0 0.0 0.00 0.00 0.00 96 1018.5
20260906080617 67 0.0 0.0 0.00 0.00 0.00 96 1018.1
20260906075617 67 0.0 0.0 0.00 0.00 0.00 96 1018.2
20260906074637 67 0.0 0.0 0.00 0.00 0.00 96 1018.3
20260906073658 68 0.0 0.0 0.00 0.00 0.00 96 1018.4
20260906072637 68 0.0 0.0 0.00 0.00 0.00 96 1018.4
20260906071617 67 0.0 0.0 0.00 0.00 0.00 96 1018.4
20260906070618 67 0.0 0.0 0.00 0.00 0.00 96 1018.6
20260906065617 68 0.0 0.0 0.00 0.00 0.00 96 1018.7
20260906064638 68 0.0 0.0 0.00 0.00 0.00 96 1018.7
20260906063617 68 0.0 0.0 0.00 0.00 0.00 96 1018.8
20260906062617 68 0.0 0.0 0.00 0.00 0.00 96 1018.7
20260906061637 68 0.0 0.0 0.00 0.00 0.00 96 1018.8
20260906060617 68 0.0 0.0 0.00 0.00 0.00 95 1018.7
20260906055617 68 0.0 0.0 0.00 0.00 0.00 95 1018.6
20260906054616 68 0.0 0.0 0.00 0.00 0.00 95 1018.6
20260906053616 69 0.0 0.0 0.00 0.00 0.00 95 1018.6
20260906052618 69 0.0 0.0 0.00 0.00 0.00 95 1018.5
20260906051617 69 0.0 0.0 0.00 0.00 0.00 95 1018.3
20260906050617 70 0.0 0.0 0.00 0.00 0.00 95 1018.3
20260906045617 69 0.0 0.0 0.00 0.00 0.00 95 1018.3
20260906044618 69 0.0 0.0 0.00 0.00 0.00 95 1018.3
20260906043616 69 0.0 0.0 0.00 0.00 0.00 95 1018.3
20260906042636 69 0.0 0.0 0.00 0.00 0.00 95 1018.4
20260906041616 69 0.0 0.0 0.00 0.00 0.00 95 1018.4
20260906040616 70 0.0 0.0 0.00 0.00 0.00 94 1018.5
20260906035618 70 0.0 0.0 0.00 0.00 0.00 94 1018.4
20260906034616 70 0.0 0.0 0.00 0.00 0.00 94 1018.2
20260906033616 70 0.0 0.0 0.00 0.00 0.00 94 1018.1
20260906032618 70 0.0 0.0 0.00 0.00 0.00 94 1017.8
20260906031617 71 0.0 0.0 0.00 0.00 0.00 94 1017.7
20260906030618 71 0.0 0.0 0.00 0.00 0.00 93 1017.6
20260906025616 71 0.0 0.0 0.00 0.00 0.00 93 1017.6
20260906024616 71 0.0 0.0 0.00 0.00 0.00 93 1017.3
20260906023618 71 0.0 0.0 0.00 0.00 0.00 94 1017.3
20260906022616 71 0.0 0.0 0.00 0.00 0.00 94 1017.1
20260906021616 71 0.0 0.0 0.00 0.00 0.00 94 1017.0
20260906020616 71 0.0 0.0 0.00 0.00 0.00 94 1016.8
20260906015637 71 0.0 0.0 0.00 0.00 0.00 93 1016.7
20260906014636 72 0.0 0.0 0.00 0.00 0.00 93 1016.5
20260906013618 72 0.0 0.0 0.00 0.00 0.00 92 1016.1
20260906012616 72 0.0 0.0 0.00 0.00 0.00 92 1016.0
20260906011616 72 0.0 0.0 0.00 0.00 0.00 92 1016.0
20260906010616 72 0.0 0.9 0.00 0.00 0.00 91 1015.8
20260906005617 73 0.0 0.0 0.00 0.00 0.00 92 1015.6
20260906004616 73 0.0 0.9 0.00 0.00 0.00 91 1015.6
20260906003616 73 0.0 0.0 0.00 0.00 0.00 91 1015.8
20260906002617 73 0.0 0.0 0.00 0.00 0.00 90 1015.8
20260906001617 74 0.0 0.0 0.00 0.00 0.00 89 1015.6
20260906000617 74 0.0 0.0 0.00 0.00 0.00 89 1015.5
20260905235639 74 158 0.9 0.9 0.00 0.00 0.00 89 1015.3
20260905234617 74 0.0 0.9 0.00 0.00 0.00 89 1015.5
20260905233618 74 0.0 0.9 0.00 0.00 0.00 88 1015.7
20260905232636 74 203 0.9 0.9 0.00 0.00 0.00 88 1015.8
20260905231616 75 203 0.9 0.9 0.00 0.00 0.00 87 1015.8
20260905230616 75 0.0 0.9 0.00 0.00 0.00 85 1015.9
20260905225616 75 0.0 0.9 0.00 0.00 0.00 86 1015.9
20260905224636 76 225 0.9 1.7 0.00 0.00 0.00 86 1016.0
20260905223617 76 248 0.9 1.7 0.00 0.00 0.00 83 1016.2
20260905222617 76 293 1.7 1.7 0.00 0.00 0.00 83 1016.1
20260905221617 77 270 1.7 2.6 0.00 0.00 0.00 83 1016.0
20260905220616 77 270 1.7 3.5 0.00 0.00 0.00 82 1016.1
20260905215616 77 248 2.6 4.3 0.00 0.00 0.00 82 1016.1
20260905214616 77 225 1.7 2.6 0.00 0.00 0.00 83 1016.1
20260905213616 77 0.0 0.9 0.00 0.00 0.00 84 1016.4
20260905212616 77 248 0.9 1.7 0.00 0.00 0.00 84 1016.5
20260905211617 77 248 0.9 2.6 0.00 0.00 0.00 83 1016.5
20260905210617 78 293 2.6 2.6 0.00 0.00 0.00 82 1016.5
20260905205617 79 270 1.7 1.7 0.00 0.00 0.00 81 1016.7
20260905204617 79 270 1.7 2.6 0.00 0.00 0.00 83 1016.5
20260905203616 79 0.0 0.9 0.00 0.00 0.00 82 1016.5
20260905202616 79 338 0.9 0.9 0.00 0.00 0.00 81 1016.5
20260905201616 80 270 0.9 1.7 0.00 0.00 0.00 82 1016.5
20260905200616 80 270 0.9 3.5 0.00 0.00 0.00 80 1016.7
20260905195616 80 293 2.6 2.6 0.00 0.00 0.00 78 1016.7
20260905194617 81 203 1.7 2.6 0.00 0.00 0.00 79 1016.7
20260905193616 80 203 1.7 3.5 0.00 0.00 0.00 79 1017.0
20260905192637 80 270 0.9 1.7 0.00 0.00 0.00 82 1016.8
20260905191636 80 23 0.9 0.9 0.00 0.00 0.00 78 1017.0
20260905190616 81 0.0 0.9 0.00 0.00 0.00 78 1016.9
20260905185617 79 248 0.9 1.7 0.00 0.00 0.00 83 1017.1
20260905184616 80 0.0 0.9 0.00 0.00 0.00 84 1017.0
20260905183616 79 203 0.9 2.6 0.00 0.00 0.00 80 1016.9
20260905182616 79 0.0 0.9 0.00 0.00 0.00 83 1016.8
20260905181616 80 225 0.9 0.9 0.00 0.00 0.00 80 1016.8
20260905180637 79 180 0.9 1.7 0.00 0.00 0.00 79 1016.9
20260905175616 79 0.0 0.9 0.00 0.00 0.00 80 1017.2
20260905174617 79 203 0.9 2.6 0.00 0.00 0.00 81 1017.4
20260905173639 79 0.0 0.9 0.00 0.00 0.00 86 1017.4